Regional Weather Roundup
Issued by NWS

Home | Current Version | Previous Version | Graphics & Text | Print | Product List | Glossary On
Versions: 1 2 3 4 5 6 7 8 9 10 11 12 13 14 15 16 17 18 19 20 21 22 23 24 25 26 27 28 29 30 31 32 33 34 35 36 37 38 39 40 41 42 43 44 45 46 47 48 49 50
097
ASUS45 KPSR 230710
RWRAZ

ARIZONA HOURLY REGIONAL WEATHER ROUNDUP
NATIONAL WEATHER SERVICE PHOENIX AZ
1200 AM MST SUN JUL 23 2017

NOTE: FAIR INDICATES FEW OR NO CLOUDS BELOW 12,000 FEET WITH NO
SIGNIFICANT WEATHER AND/OR OBSTRUCTIONS TO VISIBILITY.

AZZ001>003-036-230800-
NORTHWEST ARIZONA

CITY           SKY/WX    TMP DP  RH WIND       PRES   REMARKS
KINGMAN        CLOUDY    79  59  50 SW18      30.01F
$$

AZZ004>008-015-016-018-230800-
NORTH CENTRAL ARIZONA

CITY           SKY/WX    TMP DP  RH WIND       PRES   REMARKS
GRAND CANYON   MOCLDY    71  51  49 CALM      30.26S
WILLIAMS       CLOUDY    66  55  68 S5        30.27F
PRESCOTT       PTCLDY    68  64  87 SW5       30.14S
FLAGSTAFF      CLOUDY    63  56  78 CALM      30.28F
PAYSON         CLOUDY    70  63  78 CALM      30.17F
PAGE           CLEAR     84  51  31 S5        30.05S
$$

AZZ009>014-017-230800-
NORTHEAST ARIZONA

CITY           SKY/WX    TMP DP  RH WIND       PRES   REMARKS
WINSLOW        CLOUDY    74  62  66 E10       30.14R
SAINT JOHNS    CLOUDY    69  60  73 E6        30.19F
WINDOW ROCK    CLOUDY    64  55  72 CALM      30.28S
SHOW LOW       LGT RAIN  59  57  94 NE7       30.28R
$$

AZZ540-542>544-546-548-230800-
GREATER PHOENIX AREA

CITY           SKY/WX    TMP DP  RH WIND       PRES   REMARKS
PHOENIX        MOCLDY    92  64  39 SE7       29.82S
BUCKEYE        PTCLDY    82  75  78 E5        29.83S
LUKE AFB       PTCLDY    88  68  52 CALM      29.83R
DEER VALLEY    MOCLDY    87  69  54 SE9       29.85S
SCOTTSDALE     MOCLDY    86  68  54 SE6       29.87S
MESA-GATEWAY   MOCLDY    86  68  54 SE10      29.88R
$$

AZZ539-553-230800-
SOUTHWEST MARICOPA COUNTY AND PINAL COUNTY

CITY           SKY/WX    TMP DP  RH WIND       PRES   REMARKS
CASA GRANDE    CLOUDY    84  67  56 SE14      29.87F
GILA BEND      CLOUDY    89  67  49 SE9       29.80S
$$

AZZ503-504-507>509-230800-
SOUTHEAST ARIZONA

CITY           SKY/WX    TMP DP  RH WIND       PRES   REMARKS
TUCSON         CLOUDY    76  70  82 SE8       29.99F
DAVIS-MONTHAN  CLOUDY    74  74 100 SE6       29.98F
NOGALES        LGT RAIN  69  68  96 E3        30.07F
SIERRA VISTA   CLOUDY    67  65  94 W7        30.12S
DOUGLAS        CLOUDY    68  66  93 S3        30.07F
SAFFORD        MOCLDY    76  69  79 SE6       29.99F
$$

AZZ532-230800-
SOUTHWEST ARIZONA

CITY           SKY/WX    TMP DP  RH WIND       PRES   REMARKS
YUMA           PTCLDY    90  65  43 SE6       29.77R
$$

CAZ041-043-047-048-061-525>527-560>570-230800-
SOUTHERN CALIFORNIA

CITY           SKY/WX    TMP DP  RH WIND       PRES   REMARKS
DOWNTOWN L.A.  CLEAR     70  63  78 CALM      29.90R
L.A. AIRPORT   CLEAR     68  62  81 W6        29.90S
SAN DIEGO      MOCLDY    70  63  78 CALM      29.91F
BURBANK        CLEAR     72  61  68 E7        29.91R
ONTARIO        CLEAR     72  64  76 SW6       29.90F
RIVERSIDE      CLEAR     72  64  76 W3        29.91S
PALM SPRINGS   CLEAR     94  59  31 CALM      29.78R
EL CENTRO NAS  CLEAR     90  62  39 SE8       29.73S
IMPERIAL       PTCLDY    91  67  44 SE8       29.71S
BLYTHE         PTCLDY    96  61  31 S7        29.76S
NEEDLES        MOCLDY    98  62  30 SE12      29.82R
$$

NVZ020-UTZ003-230800-
SOUTHERN NEVADA-UTAH

CITY           SKY/WX    TMP DP  RH WIND       PRES   REMARKS
LAS VEGAS      PTCLDY    98  53  22 E6        29.86R
SALT LAKE CITY PTCLDY    78  45  30 S5        30.06S
$$

NMZ009-TXZ055-230800-
NEW MEXICO-WEST TEXAS

CITY           SKY/WX    TMP DP  RH WIND       PRES   REMARKS
ALBUQUERQUE    CLOUDY    70  60  70 SE9       30.24S
EL PASO        MOCLDY    73  68  84 CALM      30.07S
$$


........................KEY........................
SKY/WX - SKY CONDITION/WEATHER
TMP    - TEMPERATURE IN FAHRENHEIT
DP     - DEW POINT IN FAHRENHEIT
RH     - RELATIVE HUMIDITY IN PERCENT
WIND   - DIRECTION AND SPEED IN MILES PER HOUR (MPH)
VRB    - VARIABLE WIND DIRECTION
PRES   - MEAN SEA LEVEL PRESSURE IN INCHES OF MERCURY
         F - FALLING PRESSURE   R - RISING PRESSURE
         S - STEADY PRESSURE
VSB    - VISIBILITY IN MILES
HX     - HEAT INDEX IN FAHRENHEIT
WCI    - WIND CHILL INDEX IN FAHRENHEIT
TC     - TEMPERATURE IN CELSIUS WHICH IS ALSO KNOWN AS
         TEMPERATURE IN CENTIGRADE
AFB    - AIR FORCE BASE
         LUKE AFB IS LUKE AIR FORCE BASE
         DAVIS-MONTHAN IS DAVIS-MONTHAN AIR FORCE BASE
NAS    - NAVAL AIR STATION
         EL CENTRO NAS IS EL CENTRO NAVAL AIR STATION
N/A    - NOT AVAILABLE





USA.gov is the U.S. government's official web portal to all federal, state and local government web resources and services.